FW8513 Weather Reports


Display with metric or nautical units.
time (UTC)temp
F
wind
direction
speed
MPH
gust
MPH
rain 1hr
in
rain 24hr
in
rain mn
in
humidity
%
barometer
mb
20260502163035 58 355 5.0 10.0 0.00 0.00 0.00 47 1020.4
20260502161534 58 336 5.0 11.0 0.00 0.00 0.00 47 1020.5
20260502151538 55 9 8.0 15.0 0.00 0.00 0.00 53 1020.4
20260502123035 43 0 2.0 6.0 0.00 0.00 0.00 67 1019.8
20260502121538 43 23 4.0 8.0 0.00 0.00 0.00 67 1019.6
20260502114536 44 28 5.0 9.0 0.00 0.00 0.00 66 1019.3
20260502113036 45 22 6.0 11.0 0.00 0.00 0.00 65 1019.4
20260502111535 45 5 8.0 12.0 0.00 0.00 0.00 64 1019.0
20260502110044 46 5 9.0 13.0 0.00 0.00 0.00 61 1018.8
20260502104542 47 18 10.0 17.0 0.00 0.00 0.00 58 1018.2
20260502103037 49 338 13.0 19.0 0.00 0.00 0.00 56 1017.9
20260502101541 48 360 13.0 18.0 0.00 0.00 0.00 58 1017.3
20260502070041 60 318 12.0 17.0 0.00 0.00 0.00 31 1015.8
20260502064553 59 319 12.0 17.0 0.00 0.00 0.00 34 1015.8
20260502063039 56 315 5.0 10.0 0.00 0.00 0.00 36 1015.8
20260502061537 55 0 1.0 8.0 0.00 0.00 0.00 37 1015.8
20260502060038 56 0 0.0 2.0 0.00 0.00 0.00 35 1015.6
20260502054538 57 313 3.0 8.0 0.00 0.00 0.00 34 1015.6
20260502053042 57 318 1.0 4.0 0.00 0.00 0.00 35 1015.7
20260502051540 57 316 4.0 9.0 0.00 0.00 0.00 35 1015.7
20260502050036 58 321 6.0 14.0 0.00 0.00 0.00 34 1015.6
20260502044539 58 311 7.0 12.0 0.00 0.00 0.00 34 1015.5
20260502043047 58 307 7.0 11.0 0.00 0.00 0.00 33 1015.5
20260502041543 59 297 6.0 10.0 0.00 0.00 0.00 32 1015.4
20260502040052 59 297 6.0 11.0 0.00 0.00 0.00 31 1015.5
20260502034537 59 299 7.0 11.0 0.00 0.00 0.00 31 1015.3
20260502033036 60 304 5.0 9.0 0.00 0.00 0.00 30 1015.4
20260502031544 61 304 7.0 10.0 0.00 0.00 0.00 29 1015.2
20260502030041 61 300 7.0 11.0 0.00 0.00 0.00 28 1015.1
20260502024541 62 296 5.0 8.0 0.00 0.00 0.00 26 1014.8
20260502023039 64 310 3.0 8.0 0.00 0.00 0.00 25 1014.9
20260502021538 65 298 6.0 9.0 0.00 0.00 0.00 24 1014.7
20260502020035 67 300 5.0 9.0 0.00 0.00 0.00 23 1014.6
20260502014547 69 288 9.0 13.0 0.00 0.00 0.00 20 1014.7
20260502013041 70 279 8.0 14.0 0.00 0.00 0.00 19 1014.6
20260502011539 70 278 9.0 14.0 0.00 0.00 0.00 17 1014.5
20260502010038 70 291 12.0 17.0 0.00 0.00 0.00 17 1014.4
20260502004537 71 277 12.0 17.0 0.00 0.00 0.00 16 1014.6
20260502003035 73 265 11.0 17.0 0.00 0.00 0.00 15 1014.7
20260502001621 74 284 11.0 21.0 0.00 0.00 0.00 15 1014.6
20260502000041 74 270 11.0 17.0 0.00 0.00 0.00 14 1014.5
20260501234538 74 235 10.0 17.0 0.00 0.00 0.00 15 1014.6
20260501233037 74 281 14.0 19.0 0.00 0.00 0.00 15 1014.4
20260501231539 74 275 7.0 21.0 0.00 0.00 0.00 17 1014.7
20260501230036 74 261 9.0 17.0 0.00 0.00 0.00 18 1014.9
20260501224554 74 286 7.0 17.0 0.00 0.00 0.00 18 1015.2
20260501223039 74 200 6.0 17.0 0.00 0.00 0.00 18 1015.2
20260501221540 74 267 9.0 16.0 0.00 0.00 0.00 18 1015.4
20260501220043 73 313 12.0 21.0 0.00 0.00 0.00 20 1015.6
20260501214543 72 312 6.0 14.0 0.00 0.00 0.00 21 1015.8
20260501213045 72 346 7.0 12.0 0.00 0.00 0.00 23 1016.1
20260501211546 71 334 9.0 15.0 0.00 0.00 0.00 24 1016.3
20260501210042 71 0 2.0 9.0 0.00 0.00 0.00 22 1016.5
20260501204539 70 5 11.0 21.0 0.00 0.00 0.00 23 1016.4
20260501203040 70 355 10.0 17.0 0.00 0.00 0.00 24 1016.5
20260501201535 69 63 7.0 13.0 0.00 0.00 0.00 22 1016.6
20260501200040 69 293 9.0 17.0 0.00 0.00 0.00 23 1016.8
20260501194537 69 288 9.0 16.0 0.00 0.00 0.00 23 1016.9
20260501193036 69 261 9.0 16.0 0.00 0.00 0.00 24 1016.9
20260501191537 69 327 11.0 17.0 0.00 0.00 0.00 23 1016.9
20260501190036 68 335 8.0 19.0 0.00 0.00 0.00 24 1017.1
20260501184543 68 10 10.0 21.0 0.00 0.00 0.00 24 1017.2
20260501183037 68 303 11.0 21.0 0.00 0.00 0.00 25 1017.5
20260501181544 67 5 11.0 21.0 0.00 0.00 0.00 26 1017.5
20260501180040 67 319 11.0 19.0 0.00 0.00 0.00 27 1017.7
20260501174542 67 280 9.0 20.0 0.00 0.00 0.00 27 1017.6
20260501173037 67 298 12.0 22.0 0.00 0.00 0.00 28 1017.7
20260501171536 66 329 13.0 22.0 0.00 0.00 0.00 29 1017.9